www.pogodaiklimat.ru

Погода и климат >> Архив погоды >> Азербайджан >> Гянджа


АРХИВ ПОГОДЫ в Гяндже

Время (UTC), дата Ветер
(напр.,м/с)
 
Видим.   Явления Облачность Т
(С)
Тd
(С)
f
(%)
Тe
(С)
Тes
(С)
Комфортность P
(гПа)
Po
(гПа)
Тmin
(С)
Tmax
(С)
R
(мм)
R24
(мм)
S
(см)
18 15.08 ЮВ 1 10 км 6/6 1000 м
[Cu med, cong]
+26.2 +19.2 65 +31 +31 очень
душно
1011.0 976.0 +30.5
21 15.08 ЮВ 6 10 км 9/9 1000 м
[Sc]
+24.3 +19.5 75 +30 +30 очень
душно
1012.5 977.3
00 16.08 ЮВ 8 10 км 8/8 1000 м
[Sc]
+22.4 +19.6 84 +28 +28 душно 1012.4 977.0
03 16.08 В 2 20 км 8/8 1000 м
[Sc]
+22.2 +20.5 90 +29 +29 очень
душно
1012.1 976.8
06 16.08 В 1 10 км 8/8 1000 м
[Cu med, cong]
+24.5 +20.4 78 +30 +33 очень
душно
1011.3 976.2 +22.3
09 16.08 В 2 10 км 3/3 1000 м
[Cu hum]
+29.0 +19.7 57 +35 +47 очень
душно
1008.5 974.1
12 16.08 В 2 10 км 3/3 1000 м
[Cu hum]
+31.1 +19.2 49 +37 +43 очень
душно
1006.0 971.9
15 16.08 ЮВ 3 10 км 3/0
[Ci fib]
+29.8 +18.7 51 +35 +35 очень
душно
1005.1 970.8
18 16.08 В 2 10 км ясно +26.9 +19.7 65 +33 +33 очень
душно
1006.5 971.9 +31.8
21 16.08 В 2 10 км 6/6 1000 м
[Sc]
+24.1 +16.4 62 +28 +28 душно 1008.1 973.0
00 17.08 штиль 0 10 км 8/8 1000 м
[Sc]
+23.1 +17.7 72 +29 +29 очень
душно
1008.5 973.2
03 17.08 штиль 0 20 км 6/6 1000 м
[Sc]
+21.7 +17.5 77 +26 +26 душно 1009.1 973.7
06 17.08 В 1 20 км 8/0
[Ac cast]
+26.4 +16.5 55 +30 +35 душно 1008.9 974.1 +21.7
09 17.08 В 3 20 км ясно +30.4 +16.9 44 +34 +48 очень
душно
1007.5 973.2
12 17.08 В 3 20 км ясно +32.4 +13.3 31 +33 +41 жарко 1005.6 971.5
15 17.08 В 1 50 км 8/0
[Ac As]
+30.2 +13.3 36 +32 +32 жарко 1005.4 971.0
18 17.08 ЮВ 1 20 км 5/0
[Ac cast]
+26.5 +18.0 60 +31 +31 душно 1007.4 972.7 +32.8
21 17.08 ЮВ 2 20 км 3/0
[Ac cuf]
+24.3 +16.7 63 +28 +28 душно 1008.7 973.6
00 18.08 В 1 20 км ясно +20.9 +16.3 75 +26 +26 душно 1009.6 974.1
03 18.08 штиль 0 20 км 8/0
[Ac und]
+19.9 +15.9 78 +22 +22 комфорт 1010.4 974.8
06 18.08 СВ 1 20 км 3/0
[Ac trans]
+25.8 +18.4 64 +31 +40 очень
душно
1010.7 975.7 +19.9
09 18.08 СВ 6 20 км 4/0
[Ac cuf]
+31.0 +11.2 30 +31 +36 жарко 1009.1 974.8
12 18.08 СВ 4 20 км 6/0
[Ac cuf]
+34.5 +8.9 21 +33 +37 жарко 1007.7 973.7
15 18.08 В 2 20 км 4/4 1000 м
[Cu med, cong Ci fib]
+31.2 +12.0 31 +32 +32 жарко 1007.4 973.1
18 18.08 З 1 10 км ясно +25.0 +13.4 49 +27 +27 жарко 1009.9 974.9 +34.8
21 18.08 Ю 1 10 км 3/0
[Ac cuf]
+21.2 +13.6 62 +24 +24 комфорт 1011.4 975.8
00 19.08 З 1 10 км 3/0
[Ac cuf]
+22.9 +12.6 52 +26 +26 жарко 1011.7 976.4
03 19.08 З 1 10 км 3/0
[Ac cuf]
+22.3 +13.1 56 +25 +26 комфорт 1013.2 977.7
06 19.08 З 1 10 км 1/0
[Ac trans]
+27.9 +13.8 42 +30 +41 жарко 1013.3 978.5 +21.0
09 19.08 В 2 20 км 3/3 1000 м
[Cu med, cong]
+31.1 +14.9 37 +33 +45 душно 1012.7 978.2
12 19.08 В 4 20 км 4/4 1000 м
[Cu med, cong]
+33.1 +8.9 23 +32 +36 жарко 1011.4 977.1
15 19.08 В 2 50 км 8/0
[Ac As]
+32.3 +9.4 24 +31 +32 жарко 1011.3 977.0
18 19.08 ЮВ 1 10 км ясно +26.2 +11.2 39 +27 +27 жарко 1013.6 978.6 +34.4
21 19.08 ЮВ 1 10 км ясно +21.9 +11.8 53 +24 +24 комфорт 1015.4 979.8
00 20.08 СЗ 1 10 км ясно +20.5 +9.4 49 +23 +23 комфорт 1018.5 980.6
03 20.08 СЗ 1 20 км ясно +21.9 +15.2 66 +25 +26 комфорт 1017.1 981.4
06 20.08 штиль 0 20 км ясно +27.9 +10.4 34 +28 +42 жарко 1016.4 981.3 +20.5
09 20.08 В 1 20 км ясно +32.3 +14.4 34 +34 +54 опасность
солнечного
удара
1014.9 980.5
12 20.08 В 2 20 км ясно +35.7 +5.3 15 +33 +42 жарко 1012.9 978.8
15 20.08 ЮВ 2 20 км ясно +33.7 +9.4 23 +33 +33 жарко 1012.5 978.3
18 20.08 ЮВ 1 20 км ясно +26.7 +9.5 34 +27 +27 жарко 1013.8 978.8 +35.8
21 20.08 штиль 0 20 км ясно +20.9 +10.5 51 +22 +22 комфорт 1015.4 979.6
00 21.08 штиль 0 20 км ясно +18.5 +12.0 66 +19 +19 по сезону 1015.8 979.7
03 21.08 СЗ 1 20 км ясно +21.6 +12.2 55 +24 +24 комфорт 1016.1 980.4
06 21.08 С 1 50 км ясно +26.6 +14.2 46 +29 +40 жарко 1016.2 981.1 +18.5
09 21.08 В 2 50 км ясно +31.7 +11.3 29 +32 +49 жарко 1013.5 979.0
12 21.08 В 3 20 км ясно +34.7 +8.4 20 +33 +41 жарко 1010.8 976.8
15 21.08 В 3 20 км ясно +32.5 +8.9 23 +31 +32 жарко 1010.1 975.8
18 21.08 штиль 0 10 км ясно +26.9 +12.7 41 +28 +28 жарко 1010.7 975.9 +34.8
21 21.08 штиль 0 10 км ясно +20.8 +11.4 55 +23 +23 комфорт 1012.1 976.4
00 22.08 штиль 0 10 км ясно +18.3 +11.8 66 +19 +19 по сезону 1012.6 976.7
03 22.08 З 1 20 км ясно +21.2 +9.7 48 +23 +23 комфорт 1012.8 977.2
06 22.08 С 1 20 км ясно +26.4 +13.7 46 +29 +40 жарко 1012.1 977.1 +18.1
09 22.08 СВ 2 20 км ясно +31.0 +16.9 43 +35 +51 опасность
солнечного
удара
1010.4 976.0
12 22.08 СВ 4 20 км ясно +33.4 +13.2 29 +34 +40 очень
жарко
1008.1 974.0

 

Местоположение метеостанции Гянджа (Азербайджан): широта 40.72 долгота 46.42 высота над уровнем моря 311 м.

В архиве по умолчанию представлена погода в Гяндже за последнюю неделю. Архивные данные за месяц целиком и за предыдущие месяцы, начиная с января 2011 года, Вы можете получить, выбрав интересующий диапазон дат из раскрывающегося списка и нажав кнопку "Ввод!".


*Определитесь, кто Вы:
робот инопланетянин человек

Внимание! Время в таблицах - всемирное. Для получения местного времени необходимо прибавить поправку, которая равна 4 ч.

Смотрите также архив погоды в соседних городах и на ближайших метеорологических станциях:

Погода в Гадабухте (Азербайджан) (53 км)
Погода в Евлахе (Азербайджан) (63 км)
Погода в Барде (Азербайджан) (72 км)
Погода в Шеках (Азербайджан) (84 км)
Погода в Закатале (Азербайджан) (107 км)
Погода в Иджеване (Армения) (108 км)
Погода в Геокчае (Азербайджан) (112 км)
Погода в Камо (Армения) (117 км)
Погода в Севане (Армения) (121 км)
Погода в Габале (Азербайджан) (125 км)

Пояснения к столбцам:

Ветер - указаны скорость ветра в м/с - средняя за 10 мин, порывы в срок и между сроками (в фигурных скобках) и направление, откуда дует ветер: С - северный, СВ - северо-восточный, В - восточный, ЮВ - юго-восточный, Ю - южный, ЮЗ - юго-западный, З - западный, СЗ - северо-западный.
Видимость - горизонтальная дальность видимости в метрах или километрах. При видимости от 1 до 10 км при отсутствии осадков обычно наблюдается дымка, при ухудшении видимости до 1 км и менее - туман. В сухую погоду видимость может ухудшаться дымом, пылью или мглою.
Явления - указаны атмосферные явления, наблюдавшиеся в срок или в последний час перед сроком; фигурными скобками обозначены явления, наблюдавшиеся между сроками (за 1-3 часа до срока); квадратными скобками обозначены град или гололедные отложения с указанием их диаметра в мм.
Облачность - указаны через наклонную черту общая и нижняя облачность в баллах и высота нижней границы облаков в метрах; квадратными скобками обозначены формы облаков: Ci - перистые, Cs - перисто-слоистые, Cc - перисто-кучевые, Ac - высококучевые, As - высокослоистые, Sc - слоисто-кучевые, Ns - слоисто-дождевые, Cu - кучевые, Cb - кучево-дождевые. Подробнее классификацию облаков см. в Атласе облаков (PDF).
T - Температура воздуха - температура, измеренная на высоте 2 м над землей.
Td - Температура точки росы - температура, при понижении до которой содержащийся в воздухе водяной пар достигнет насыщения.
f - Относительная влажность воздуха - влажноcть воздуха, измеренная на высоте 2 м над землей.
Te - Эффективная температура - температура, которую ощущает одетый по сезону человек в тени. Характеристика душности погоды. При расчете учитывается влияние влажности воздуха и скорости ветра на теплоощущения человека.
Tes - Эффективная температура на солнце - температура, которую ощущает человек, с поправкой на солнечный нагрев. Характеристика знойности погоды. Зависит от высоты солнца над горизонтом, облачности и скорости ветра. Ночью, в пасмурную погоду, а также при ветре 12 м/с и более поправка равна нулю.
P - Атмосферное давление - приведенное к уровню моря атмосферное давление.
Po - Атмосферное давление - измеренное на уровне метеостанции атмосферное давление.
Tmin - Минимальная температура - минимум температуры воздуха на высоте 2 м над землей.
Tmax - Максимальная температура - максимум температуры воздуха на высоте 2 м над землей.
R - Количество осадков - Количество выпавших осадков за период времени, мм. При наведении курсора мыши на число - период времени, за который выпало указанное количество осадков.
R24 - Количество осадков - Количество выпавших осадков за 24 часа, мм.
S - Снежный покров - Высота снежного покрова, см. При наведении курсора мыши на число - состояние снежного покрова и степень покрытия местности в баллах.